www.pogodaiklimat.ru

Погода и климат >> Архив погоды >> Россия >> Брянская область >> Брянск


АРХИВ ПОГОДЫ в Брянске

Время (UTC), дата Ветер
(напр.,м/с)
 
Видим.   Явления Облачность Т
(С)
Тd
(С)
f
(%)
Тe
(С)
Тes
(С)
Комфортность P
(гПа)
Po
(гПа)
Тmin
(С)
Tmax
(С)
R
(мм)
R24
(мм)
S
(см)
15 16.07 Ю 2 20 км {гроза, ливн. осадки} 9/3 600 м
[Cu med, cong Ac trans]
+20.2 +13.6 66 +23 +24 комфорт 1007.2 982.4 0.6
18 16.07 штиль 0 14 км {гроза, ливн. осадки} 6/4 1000 м
[Sc Ac trans]
+17.2 +13.8 80 +17 +17 прохладно 1007.8 982.7 +22.1 0.6
21 16.07 штиль 0 4000 м дымка 3/0
[Ac trans]
+14.8 +13.7 93 +14 +14 прохладно 1007.7 982.4
00 17.07 штиль 0 4000 м дымка 4/0
[Ac trans]
+14.1 +13.5 96 +14 +14 по сезону 1007.5 982.1
03 17.07 ЮВ 1 5000 м дымка 6/0
[Ac trans]
+12.8 +12.2 96 +13 +13 прохладно 1007.0 981.5 +12.4
06 17.07 ЮВ 1 12 км 6/4 600 м
[Cu med, cong Ci fib]
+16.5 +14.0 85 +17 +23 прохладно 1006.2 981.0 +12.4
09 17.07 Ю 2 20 км 8/6 960 м
[Cu med, cong Ci fib]
+21.8 +11.0 50 +24 +29 комфорт 1005.3 980.5
12 17.07 ЮЗ 2 20 км 8/6 660 м
[Cb cap Ac trans]
+22.8 +9.8 44 +25 +28 комфорт 1004.4 979.7
15 17.07 СЗ 2
{10}
20 км {ливн. осадки} 8/6 630 м
[Cb cap Ac trans]
+18.8 +9.8 56 +20 +21 по сезону 1005.0 980.0 0.0
18 17.07 В 1 14 км {ливн. осадки} 9/3 600 м
[Cb cap Ac trans Ci fib]
+16.1 +11.1 72 +17 +17 прохладно 1005.4 980.2 +23.6 0.0
21 17.07 Ю 2 4000 м в посл. час гроза {ливн. осадки} 8/0
[Ci fib]
+12.8 +11.3 91 +12 +12 холодно 1005.5 980.0
00 18.07 Ю 1 4000 м дымка {гроза, ливн. осадки} 8/0
[Ci fib]
+10.9 +10.2 95 +10 +10 холодно 1005.6 979.9
03 18.07 Ю 1 5000 м дымка 10/3 600 м
[Cb cap Ac und]
+11.7 +11.1 96 +11 +12 холодно 1005.7 980.1 +10.1 2
06 18.07 Ю 1 9000 м дымка {ливн. осадки} 9/0
[Ac trans]
+13.8 +12.5 92 +14 +18 холодно 1005.7 980.3 +10.1 3
09 18.07 ЮЗ 3 20 км 9/8 570 м
[Cb cap Ac trans]
+17.0 +11.3 69 +17 +19 прохладно 1005.5 980.3
12 18.07 З 1 20 км {гроза, ливн. осадки} 9/4 300 м
[Cb cap Ci fib]
+17.8 +12.2 70 +19 +26 холодно 1006.2 981.1
15 18.07 Ю 2 20 км 8/8 480 м
[Cb cap Ci fib]
+17.5 +11.0 66 +18 +19 прохладно 1006.1 981.0 4
18 18.07 ЮЗ 2 14 км {ливн. осадки} 10/8 540 м
[Cb cap Ac As]
+14.5 +11.1 80 +14 +14 холодно 1007.1 981.7 +19.2 3
21 18.07 ЮЗ 2 4000 м слаб. ливневой дождь 10/10 480 м
[Cb cap]
+14.0 +13.1 94 +13 +13 холодно 1006.9 981.5
00 19.07 ЮЗ 2 4000 м дымка {ливн. осадки} 10/8 570 м
[Cb cap Ac As]
+14.5 +13.0 91 +14 +14 по сезону 1006.7 981.3
03 19.07 ЮЗ 2 10 км 8/6 500 м
[Cb cap Ac trans]
+15.0 +12.8 87 +15 +15 прохладно 1007.3 982.0 +13.8 0.9
06 19.07 ЮЗ 2 14 км 9/8 570 м
[Cb cap Ac trans]
+15.9 +11.7 76 +16 +17 прохладно 1008.4 983.2 +13.8 0.9
09 19.07 З 5-11
{11}
20 км 8/4 600 м
[Cb cap Ac trans]
+19.9 +11.8 60 +21 +24 комфорт 1009.1 984.1
12 19.07 СЗ 3
{11}
20 км в посл. час ливневой дождь 6/4 300 м
[Cb cap Ac trans]
+20.0 +11.8 59 +22 +27 комфорт 1010.4 985.4
15 19.07 З 1
{14}
15 км в посл. час ливневой дождь 8/6 570 м
[Cb cap Ac trans]
+15.5 +11.2 76 +16 +17 холодно 1011.9 986.5 5
18 19.07 СЗ 1 15 км {ливн. осадки} 3/3 300 м
[Cb cap]
+16.5 +12.5 77 +17 +17 прохладно 1012.8 987.5 +21.5 5
21 19.07 ЮЗ 1 4000 м дымка 6/0
[Ac trans]
+14.2 +13.1 93 +14 +14 прохладно 1013.6 988.1
00 20.07 ЮЗ 1 10 км 8/0
[Ac trans]
+15.0 +10.2 73 +16 +16 по сезону 1014.1 988.6
03 20.07 ЮЗ 2 11 км 4/0
[Ac trans]
+13.4 +10.7 84 +13 +13 холодно 1015.3 989.6 +11.8
06 20.07 З 2 20 км ясно +19.0 +11.8 63 +20 +28 по сезону 1015.4 990.2 +11.8
09 20.07 З 4
{10}
20 км 8/8 930 м
[Cu med, cong]
+23.4 +8.6 39 +25 +27 комфорт 1015.4 990.6
12 20.07 З 4 20 км 4/4 600 м
[Cu med, cong]
+24.1 +6.2 32 +24 +29 комфорт 1015.8 991.0
15 20.07 З 3 20 км 4/4 1000 м
[Cu med, cong]
+24.8 +6.8 32 +25 +26 комфорт 1015.7 990.9
18 20.07 ЮЗ 1 20 км ясно +18.0 +11.7 67 +19 +19 по сезону 1016.9 991.6 +25.2
21 20.07 штиль 0 10 км ясно +13.2 +10.7 85 +13 +13 холодно 1018.0 992.3
00 21.07 штиль 0 4000 м дымка ясно +11.2 +10.0 92 +10 +10 холодно 1018.7 992.8
03 21.07 СЗ 2 12 км ясно +13.4 +11.0 85 +13 +13 прохладно 1018.8 993.1 +10.6
06 21.07 СЗ 1 20 км ясно +21.0 +10.2 50 +24 +33 комфорт 1018.7 993.5 +10.6
09 21.07 СЗ 3 20 км 4/4 600 м
[Cu med, cong]
+24.4 +7.6 34 +25 +32 комфорт 1018.4 993.5
12 21.07 З 3 20 км 6/6 960 м
[Cu med, cong]
+26.2 +5.9 27 +26 +30 жарко 1017.9 993.2
15 21.07 З 2 20 км 4/4 600 м
[Cu med, cong]
+26.4 +6.1 27 +26 +28 жарко 1017.3 992.6
18 21.07 З 1 20 км ясно +20.3 +10.4 53 +23 +23 комфорт 1017.6 992.5 +26.8
21 21.07 штиль 0 10 км ясно +14.3 +10.9 80 +14 +14 прохладно 1018.9 993.3
00 22.07 штиль 0 4000 м дымка ясно +12.8 +11.9 94 +12 +12 прохладно 1018.9 993.1
03 22.07 штиль 0 5000 м дымка 4/4 600 м
[Cu hum]
+13.0 +12.3 96 +12 +13 холодно 1018.6 992.9 +11.6
06 22.07 ЮВ 1 20 км 4/4 600 м
[Cu hum]
+23.1 +11.5 48 +25 +31 комфорт 1017.0 992.2 +11.6
09 22.07 ЮВ 2 20 км 6/0
[Ci fib]
+26.6 +10.4 36 +27 +41 жарко 1016.0 991.4
12 22.07 Ю 2 20 км 8/4 600 м
[Cu med, cong Ci fib]
+27.8 +9.4 32 +28 +34 жарко 1014.2 989.7
15 22.07 З 4
{11}
7000 м слаб. ливневой дождь 10/8 540 м
[Cb cap Ac und]
+19.4 +15.5 78 +21 +21 комфорт 1015.0 989.8 2
18 22.07 В 2 6000 м слаб. ливневой дождь 10/10 480 м
[Cb cap]
+17.8 +16.9 94 +18 +18 по сезону 1013.9 988.5 +28.4 5
21 22.07 Ю 1 4000 м слаб. ливневой дождь 10/8 540 м
[Cb cap Ac As]
+17.2 +16.4 95 +18 +18 по сезону 1012.6 987.4
00 23.07 Ю 1 4000 м дымка {ливн. осадки} 10/8 480 м
[Cb cap Ac As]
+17.0 +16.2 95 +18 +18 тепло 1011.4 986.2
03 23.07 З 2 6000 м дымка {ливн. осадки} 10/10 300 м
[St]
+15.6 +14.9 96 +15 +15 прохладно 1011.1 985.7 +15.6 7
06 23.07 ЮЗ 2 12 км {ливн. осадки} 10/10 720 м
[Sc]
+16.5 +14.2 86 +17 +17 по сезону 1010.9 985.6 +15.6 4
09 23.07 ЮЗ 3 15 км 9/9 630 м
[Cb cap]
+18.8 +13.5 71 +20 +21 по сезону 1011.0 985.9
12 23.07 ЮЗ 2 20 км 8/4 600 м
[Cu med, cong Ac trans Ci fib]
+21.5 +12.9 58 +24 +29 комфорт 1010.5 985.6

 

Местоположение метеостанции Брянск (Брянская область, Россия): широта 53.25 долгота 34.32 высота над уровнем моря 216 м.

В архиве по умолчанию представлена погода в Брянске за последнюю неделю. Архивные данные за месяц целиком и за предыдущие месяцы, начиная с января 2011 года, Вы можете получить, выбрав интересующий диапазон дат из раскрывающегося списка и нажав кнопку "Ввод!".


*Определитесь, кто Вы:
робот инопланетянин человек

Внимание! Время в таблицах - всемирное. Для получения местного времени необходимо прибавить поправку, которая равна 3 ч.

Смотрите также архив погоды в соседних городах и на ближайших метеорологических станциях:

Погода в Карачеве (Брянская область, Россия) (47 км)
Погода в Навле (Брянская область, Россия) (48 км)
Погода в Жуковке (Брянская область, Россия) (49 км)
Погода в Жиздре (Калужская область, Россия) (62 км)
Погода в Трубчевске (Брянская область, Россия) (83 км)
Погода в Дмитровск-Орловский (Орловская область, Россия) (100 км)
Погода в Болхове (Орловская область, Россия) (115 км)
Погода в Сухиничах (Калужская область, Россия) (116 км)
Погода в Орле (Орловская область, Россия) (118 км)
Погода в Унече (Брянская область, Россия) (120 км)

Пояснения к столбцам:

Ветер - указаны скорость ветра в м/с - средняя за 10 мин, порывы в срок и между сроками (в фигурных скобках) и направление, откуда дует ветер: С - северный, СВ - северо-восточный, В - восточный, ЮВ - юго-восточный, Ю - южный, ЮЗ - юго-западный, З - западный, СЗ - северо-западный.
Видимость - горизонтальная дальность видимости в метрах или километрах. При видимости от 1 до 10 км при отсутствии осадков обычно наблюдается дымка, при ухудшении видимости до 1 км и менее - туман. В сухую погоду видимость может ухудшаться дымом, пылью или мглою.
Явления - указаны атмосферные явления, наблюдавшиеся в срок или в последний час перед сроком; фигурными скобками обозначены явления, наблюдавшиеся между сроками (за 1-3 часа до срока); квадратными скобками обозначены град или гололедные отложения с указанием их диаметра в мм.
Облачность - указаны через наклонную черту общая и нижняя облачность в баллах и высота нижней границы облаков в метрах; квадратными скобками обозначены формы облаков: Ci - перистые, Cs - перисто-слоистые, Cc - перисто-кучевые, Ac - высококучевые, As - высокослоистые, Sc - слоисто-кучевые, Ns - слоисто-дождевые, Cu - кучевые, Cb - кучево-дождевые. Подробнее классификацию облаков см. в Атласе облаков (PDF).
T - Температура воздуха - температура, измеренная на высоте 2 м над землей.
Td - Температура точки росы - температура, при понижении до которой содержащийся в воздухе водяной пар достигнет насыщения.
f - Относительная влажность воздуха - влажноcть воздуха, измеренная на высоте 2 м над землей.
Te - Эффективная температура - температура, которую ощущает одетый по сезону человек в тени. Характеристика душности погоды. При расчете учитывается влияние влажности воздуха и скорости ветра на теплоощущения человека.
Tes - Эффективная температура на солнце - температура, которую ощущает человек, с поправкой на солнечный нагрев. Характеристика знойности погоды. Зависит от высоты солнца над горизонтом, облачности и скорости ветра. Ночью, в пасмурную погоду, а также при ветре 12 м/с и более поправка равна нулю.
P - Атмосферное давление - приведенное к уровню моря атмосферное давление.
Po - Атмосферное давление - измеренное на уровне метеостанции атмосферное давление.
Tmin - Минимальная температура - минимум температуры воздуха на высоте 2 м над землей.
Tmax - Максимальная температура - максимум температуры воздуха на высоте 2 м над землей.
R - Количество осадков - Количество выпавших осадков за период времени, мм. При наведении курсора мыши на число - период времени, за который выпало указанное количество осадков.
R24 - Количество осадков - Количество выпавших осадков за 24 часа, мм.
S - Снежный покров - Высота снежного покрова, см. При наведении курсора мыши на число - состояние снежного покрова и степень покрытия местности в баллах.